Tracking 19817 objects as of 19-Aug-2019
HD Live streaming from Space Station
objects crossing your sky now

LEMUR 2 GREGROBINSON

Track LEMUR 2 GREGROBINSON now!
10-day predictions
LEMUR 2 GREGROBINSON is classified as:


NORAD ID: 44411
Int'l Code: 2019-038AB
Perigee: 520.3 km
Apogee: 555.9 km
Inclination: 97.5 °
Period: 95.3 minutes
Semi major axis: 6909 km
RCS: Unknown
Launch date: July 5, 2019
Source: United States (US)
Launch site: ()
aabbcc
Your satellite tracking list
Your tracking list is empty




NASA's NSSDC Master Catalog

Two Line Element Set (TLE):
1 44411U 19038AB  19228.86255085 +.00000703 +00000-0 +44757-4 0  9997
2 44411 097.4950 189.9897 0025768 102.4087 258.0029 15.11716482006076
Source of the keplerian elements: AFSPC